sat.trackr.live / text

‹ back to catalog

KUIPER-00549

NORAD 69616 · 2026-140AA

PAYLOAD ACTIVE UNKNOWN

§ Identity

Operator
Country
US
Launch date
2026-06-17
Launch site
FRGUI
Launch vehicle
Mass (kg)
RCS (m²)

External: N2YO · Heavens-Above · Gunter

§ Orbital elements

Epoch: 2026-09-20T04:00:03.000096Z

Period
95.99 min
Inclination
51.8958°
Eccentricity
0.0004536
Mean motion
15.00189249 rev/d
Perigee alt
563.2 km
Apogee alt
569.5 km
Semi-major
6,944.4 km
B*
-2.5158e-3
RAAN
301.5679°
Arg perigee
226.9805°
Mean anomaly
174.9566°
Rev number
578

§ Raw data

KUIPER-005491 69616U 26140AA  26263.16670139 -.00031919  00000+0 -25158-2 0  99902 69616  51.8958 301.5679 0004536 226.9805 174.9566 15.00189249  5784

JSON: /api/v1/satellites/69616 · /tle

For live sub-satellite position, see the globe view (requires WebGL).

§ Visibility from observer

Set your observer location to see the next 7 days of passes ≥ 10°. The values pass through the URL so the page stays shareable.

No JS? Fill the form by hand. The geolocation button needs JavaScript.